カタログに戻る

SL-14 DEB

運用中PO
NORAD 20016·DEBRIS·🇷🇺 Russia

打ち上げ Oct 26, 1978 から Plesetsk Cosmodrome

Loading…

次のパス (今後24時間)

TLE

最新Source: Space-Track

元期: Sep 13, 2026, 13:15 UTC

1 20016U 78100AQ  26256.55231699  .00017818  00000-0  13896-1 0  9999
2 20016  82.8087 100.5873 0430285 292.0229  63.5739 13.56291309624202

AllMySatでSL-14 DEBをリアルタイム追跡

Download on the App Store